Weather in Adygeysk

Russia / Republic of Adygea     44°53′05″N   39°11′26″E
temp.,
°C
wind,
m/s
gust,
m/s
humid.,
%
clouds,
%
prec.,
mm/h
press.,
hPa
HPBL,
m
22 september, wed
wed2200:00+15wnw4786100 0.6 1015412
03:00+14nw5881100 0.9 1015588
06:00+13wnw358099 0.0 1016387
09:00+14wnw4567100 0.0 1016930
12:00+16wnw5553100 0.0 10151551
15:00+16wnw5453100 0.0 10151460
18:00+14nw236380 0.0 1015492
21:00+14nne0160100 0.0 1015335
23 september, thu
thu2300:00+14ssw1165100 0.0 1014168
03:00+12sse2272100 0.0 101489
06:00+12se1274100 0.0 1014106
09:00+14ese2368100 0.0 1013414
12:00+16ese2257100 0.0 1012751
15:00+17se2250100 0.0 10111274
18:00+15nw566398 0.0 1012437
21:00+14nnw4764100 0.0 1012546
24 september, fri
fri2400:00+13nw4672100 0.0 1013437
03:00+12wnw3575100 0.0 1013327
06:00+11wsw33818 0.0 1014153
09:00+13wsw44650 0.0 1015440
12:00+17w574413 0.0 10141795
15:00+18w81043100 0.0 10142249
18:00+16wsw695351 0.0 1015986
21:00+13sw5866100 0.0 1015365
25 september, sat
sat2500:00+15sw91476100 0.5 1014969
03:00+14sw121888100 3.4 10111047
06:00+14w71297100 17.7 1010728
09:00+15w698142 20.9 1012760
12:00+19w7105599 0.3 10132109
15:00+18wnw8105177 0.4 10141741
18:00+15wnw7116396 0.0 1017833
21:00+13w5107781 0.1 1019370
26 september, sun
sun2600:00+12wsw478111 0.3 1020223
03:00+12wsw46815 0.3 1021183
06:00+11wsw58783 0.0 1022178
09:00+16wsw596231 0.0 1022643
12:00+19wsw81056100 0.0 10211562
15:00+18wsw81165100 0.1 10211356
18:00+18sw81268100 0.3 1020785
21:00+17sw91270100 0.3 1019531